Language selection

My Weather Profile Weather Topics  | 

Lake of the Woods: Past 24 Hour Conditions

 

Caribou Island

10:00 PM EST 29 November 2022
Disclaimer

This table is a summary of hourly weather conditions for the past 24 hours.
Please note that these observations might not always be representative of weather conditions over their associated marine area.

Date / Time
(EST)
Wind(knots) Conditions Visibility(km) Pressure(kPa) Air tempC) Relative humidity(%) Dew pointC)
29 November 2022
22:00 SE 27 gust 32 N/A N/A 99.1 6 95 5
21:00 SE 28 gust 36 N/A N/A 99.3 6 93 5
20:00 SE 28 gust 35 N/A N/A 99.5 6 92 5
19:00 SE 29 gust 38 N/A N/A 99.7 5 92 4
18:00 SE 33 gust 39 N/A N/A 99.9 5 90 4
17:00 SE 29 N/A N/A 100.0 5 88 3
16:00 SE 24 gust 31 N/A N/A 100.3 5 84 3
15:00 SE 23 gust 28 N/A N/A 100.5 5 86 3
14:00 SE 20 gust 26 N/A N/A 100.7 5 85 3
13:00 SE 20 N/A N/A 100.8 5 87 3
12:00 SE 19 gust 24 N/A N/A 100.9 5 88 3
11:00 SSE 18 N/A N/A 101.0 5 88 3
10:00 SSE 19 N/A N/A 101.0 5 87 3
9:00 S 19 N/A N/A 101.0 4 87 3
8:00 S 18 gust 24 N/A N/A 101.1 4 87 2
7:00 SSE 20 N/A N/A 101.0 4 85 2
6:00 SSE 15 gust 22 N/A N/A 101.0 4 88 2
5:00 SSE 19 N/A N/A 101.1 4 85 2
4:00 SSE 21 N/A N/A 101.1 4 84 1
3:00 SSE 20 N/A N/A 101.1 4 82 1
2:00 SSE 24 N/A N/A 101.1 4 79 0
1:00 SSE 21 N/A N/A 101.1 3 86 1
0:00 S 21 N/A N/A 101.2 3 84 1
28 November 2022
23:00 SSE 21 N/A N/A 101.2 3 78 0
22:00 SSE 20 gust 26 N/A N/A 101.2 3 78 0

Zoom-in to make a selection

Map of Great Lakes - Lake Superior marine weather areas Mid Superior - 45001 East Superior - 45004 West Superior - 45006 Slate Island - 45136 Lake Of the Woods - 45148 Kenora Airport Royal Island Armstrong Airport Caribou Island Marathon Airport Pukaskwa National Park Thunder Bay Airport Welcome Island Little Flatland Island Sault Ste. Marie Airport Wawa Airport
Legend:
buoy Buoy
land station Land Station

Great Lakes - Lake Superior Area

Another Region

What we are doing

Date modified: